Home   Weather   Esch-sur-Alzette   Past weeks

Flag for Luxembourg Past Weather in Esch-sur-Alzette, Luxembourg — Yesterday and Last 2 Weeks

45 °F

Light rain. Mostly cloudy.

Feels Like: 43 °F
Forecast: 51 / 56 °F
Wind: 3 mph from East

Location: Luxembourg Airport

Current Time: Oct 24, 2016 at 3:40:10 AM

Latest Report: Oct 24, 2016 at 2:50 AM

Visibility: 1 mi

Pressure: 29.86 "Hg

Humidity: 93%

Dew Point: 43 °F

Location of Esch-sur-AlzetteLocation

Past Weather in Esch-sur-Alzette — Graph


Esch-sur-Alzette Temperature Yesterday

Maximum temperature yesterday: 50 °F (at 2:50 PM)
Minimum temperature yesterday: 39 °F (at 9:20 AM)
Average temperature yesterday: 44 °F

High & Low Weather Summary for the Past Weeks

High63 °F (Oct 16, 2:50 PM)100% (Oct 15, 6:20 AM)30.27 "Hg (Oct 15, 6:20 AM)
Low37 °F (Oct 10, 3:20 AM)44% (Oct 11, 3:20 PM)29.65 "Hg (Oct 14, 4:20 PM)
Average47 °F86%30.02 "Hg
* Reported Oct 9 2:20 AM — Oct 24 2:20 AM, Esch-sur-Alzette, Weather by CustomWeather, © 2016

Note: Actual official high and low records may vary slightly from our data, if they occured in-between our weather recording intervals... More about our weather records


Esch-sur-Alzette Weather History for the Previous 24 Hours

Scroll right to see more
Time TempWeatherWind HumidityBarometerVisibility
2:20 AM
Mon, Oct 24
45 °FFog.6 mph93%29.86 "Hg1 mi
1:50 AM45 °FDrizzle. Fog.5 mph93%29.86 "Hg1 mi
1:20 AM45 °FDrizzle. Fog.3 mph93%29.86 "Hg1 mi
12:50 AM45 °FRain. Passing clouds.7 mph93%29.86 "Hg2 mi
12:20 AM45 °FLight rain. Passing clouds.9 mph93%29.86 "Hg2 mi
11:50 PM
Sun, Oct 23
43 °FLight rain. Passing clouds.9 mph100%29.83 "Hg2 mi
11:20 PM43 °FPassing clouds.10 mph100%29.83 "Hg2 mi
10:50 PM43 °FLight rain. Passing clouds.9 mph100%29.86 "Hg2 mi
10:20 PM45 °FRain. Passing clouds.8 mph93%29.86 "Hg2 mi
9:50 PM45 °FLight rain. Passing clouds.8 mph93%29.83 "Hg3 mi
9:20 PM45 °FLight rain. Passing clouds.12 mph93%29.83 "Hg4 mi
8:50 PM45 °FPartly cloudy.9 mph93%29.83 "Hg4 mi
8:20 PM46 °FPartly cloudy.9 mph87%29.83 "Hg4 mi
7:50 PM46 °FPassing clouds.9 mph87%29.83 "Hg4 mi
7:20 PM46 °FClear.7 mph87%29.83 "Hg5 mi
6:50 PM46 °FClear.8 mph87%29.83 "Hg10 mi
6:20 PM46 °FSunny.8 mph87%29.83 "Hg10 mi
5:50 PM48 °FSunny.8 mph82%29.83 "Hg10 mi
5:20 PM48 °FSunny.8 mph82%29.83 "Hg10 mi
4:50 PM48 °FPassing clouds.9 mph82%29.83 "HgN/A
4:20 PM48 °FPassing clouds.10 mph82%29.83 "HgN/A
3:50 PM50 °FPassing clouds.10 mph76%29.83 "HgN/A
3:20 PM50 °FPassing clouds.9 mph76%29.83 "HgN/A
2:50 PM50 °FPassing clouds.10 mph76%29.83 "HgN/A
2:20 PM48 °FScattered clouds.9 mph82%29.86 "HgN/A
1:50 PM46 °FPartly sunny.8 mph87%29.86 "HgN/A
1:20 PM46 °FBroken clouds.9 mph87%29.86 "Hg5 mi
12:50 PM45 °FBroken clouds.12 mph93%29.86 "Hg4 mi
12:20 PM43 °FFog.12 mph93%29.86 "Hg3 mi
11:50 AM43 °FFog.12 mph93%29.86 "Hg1 mi
11:20 AM41 °FFog.12 mph100%29.86 "Hg1 mi
10:50 AM41 °FFog.12 mph100%29.86 "Hg0 mi
10:20 AM41 °FFog.10 mph100%29.89 "Hg0 mi
9:50 AM41 °FFog.10 mph100%29.89 "Hg0 mi
9:20 AM39 °FFog.12 mph100%29.89 "Hg0 mi
8:50 AM41 °FFog.8 mph100%29.89 "Hg0 mi
8:20 AM41 °FFog.7 mph100%29.86 "Hg0 mi
7:50 AM41 °FFog.7 mph100%29.86 "Hg0 mi
7:20 AM41 °FFog.9 mph100%29.86 "Hg0 mi
6:50 AM43 °FFog.8 mph100%29.86 "Hg0 mi
6:20 AM43 °FFog.7 mph100%29.86 "Hg0 mi
5:50 AM43 °FFog.6 mph100%29.86 "Hg0 mi
5:20 AM43 °FFog.6 mph100%29.89 "Hg1 mi
4:50 AM43 °FFog.7 mph100%29.89 "Hg0 mi
4:20 AM43 °FFog.9 mph100%29.89 "Hg0 mi
3:50 AM43 °FFog.8 mph100%29.89 "Hg0 mi
3:20 AM43 °FFog.7 mph100%29.92 "Hg0 mi
Weather by CustomWeather, © 2016

See weather overviewHow to use our weather pages